Location: Newark
(43.4100°N, 74.9600°W)
Time: 05:56:09
(UTC+00:00)

ISS - Pass Details

Date: 19 September 2019
Orbit: 411 x 421 km, 51.6° (Epoch: 23 October)

Event Time Altitude Azimuth Distance (km) Brightness Sun altitude
Rises 01:28:35 0° 240° (WSW) 2,333 0.4 -25.7°
Reaches altitude 10° 01:30:40 10° 242° (WSW) 1,474 -0.6 -26.0°
Enters shadow 01:31:01 12° 243° (WSW) 1,336 -0.9 -26.1°
